Overview Statistics Trail Chart Weather Telemetry Raw packets
 

This is the latest recevied weather packets stored in our database for station/object IW4EGP-3. If no packets are shown the sender has not sent any weather packets the latest 10 day(s).

<< 50 51 52 53 54 55 56 >>
Time Temp. Humidity Pressure Rain* Wind** Luminosity Snow
1787799163 23.33° C 80% 1018.2 hPa 0 mm - - -
1787799132 23.33° C 80% 1018.2 hPa 0 mm - - -
1787798516 23.33° C 82% 1017.9 hPa 0 mm - - -
1787798232 23.33° C 82% 1017.9 hPa 0 mm - - -
1787797333 23.33° C 79% 1017.6 hPa 0 mm - - -
1787796520 23.33° C 81% 1017.8 hPa 0 mm - - -
1787796435 23.33° C 81% 1017.8 hPa 0 mm - - -
1787795535 22.78° C 86% 1017.9 hPa 0 mm - - -
1787794634 23.33° C 84% 1017.6 hPa 0 mm - - -
1787793732 23.89° C 83% 1017.9 hPa 0 mm - - -
1787792831 22.78° C 86% 1017.9 hPa 0 mm - - -
1787791932 22.78° C 86% 1017.6 hPa 0 mm - - -
1787791121 23.33° C 84% 1018 hPa 0 mm - - -
1787791033 23.33° C 84% 1018 hPa 0 mm - - -
1787790131 23.33° C 84% 1018.4 hPa 0 mm - - -
1787789232 23.33° C 85% 1018.1 hPa 0 mm - - -
1787788462 23.33° C 85% 1018.2 hPa 0 mm - - -
1787788331 23.33° C 85% 1018.2 hPa 0 mm - - -
1787787499 23.33° C 83% 1018.1 hPa 0 mm - - -
1787787432 23.33° C 83% 1018.1 hPa 0 mm - - -
1787786534 24.44° C 83% 1018.5 hPa 0 mm - - -
1787785937 23.89° C 83% 1018.6 hPa 0 mm - - -
1787785839 23.89° C 83% 1018.6 hPa 0 mm - - -
1787785632 23.89° C 83% 1018.6 hPa 0 mm - - -
1787784801 24.44° C 81% 1018.5 hPa 0 mm - - -

* Rain latest hour (hover to see other rain measurements)
** Current wind speed in m/s (hover to see current wind gust speed)